RLX254 LKPR-LIRF

Flight info

Callsign RLX254
Flight time 1h 38m
Altitude 35000
Route VOZ DCT PISAM/N0449F390 DCT TAGAS/N0449F380 DCT RADLY DCT BAXON/N0449F390 DCT UNUMU DCT ETPOK/N0395F190 T369 RITEB
Aircraft B737/M-SDE2E3FGHIRWXY/LB1

Departure

Time 2026-05-05 14:12
Airport Václav Havel Airport Prague (LKPR)

Arrival

Time 2026-05-05 15:51
Airport Rome–Fiumicino Leonardo da Vinci International Airport (LIRF)
Time Latitude Longitude Altitude Speed Heading
2026-05-05 13:27 50.09843 14.27946 1196 ft 0 kts 249°
2026-05-05 14:05 50.09839 14.27927 1196 ft 4 kts 249°
2026-05-05 14:05 50.09817 14.27868 1198 ft 7 kts 214°
2026-05-05 14:05 50.09772 14.27832 1201 ft 7 kts 199°
2026-05-05 14:06 50.09732 14.27791 1204 ft 7 kts 217°
2026-05-05 14:06 50.09693 14.27746 1206 ft 7 kts 217°
2026-05-05 14:06 50.09656 14.27703 1208 ft 7 kts 217°
2026-05-05 14:06 50.09613 14.27689 1209 ft 7 kts 162°
2026-05-05 14:07 50.09578 14.27734 1210 ft 6 kts 135°
2026-05-05 14:07 50.09547 14.27782 1211 ft 6 kts 135°
2026-05-05 14:07 50.09515 14.27830 1212 ft 6 kts 135°
2026-05-05 14:07 50.09485 14.27876 1214 ft 6 kts 135°
2026-05-05 14:08 50.09455 14.27921 1214 ft 6 kts 135°
2026-05-05 14:08 50.09426 14.27966 1214 ft 6 kts 135°
2026-05-05 14:08 50.09397 14.28010 1214 ft 6 kts 135°
2026-05-05 14:08 50.09369 14.28053 1214 ft 6 kts 135°
2026-05-05 14:09 50.09341 14.28095 1214 ft 6 kts 135°
2026-05-05 14:09 50.09314 14.28137 1214 ft 5 kts 135°
2026-05-05 14:09 50.09287 14.28178 1213 ft 5 kts 135°
2026-05-05 14:09 50.09259 14.28220 1212 ft 6 kts 135°
2026-05-05 14:10 50.09226 14.28266 1211 ft 7 kts 144°
2026-05-05 14:10 50.09182 14.28283 1210 ft 7 kts 183°
2026-05-05 14:10 50.09145 14.28259 1210 ft 2 kts 215°
2026-05-05 14:10 50.09144 14.28259 1210 ft 0 kts 215°
2026-05-05 14:11 50.09132 14.28245 1210 ft 7 kts 217°
2026-05-05 14:11 50.09076 14.28166 1208 ft 13 kts 240°
2026-05-05 14:11 50.09102 14.28052 1208 ft 6 kts 307°
2026-05-05 14:11 50.09103 14.28048 1208 ft 4 kts 307°
2026-05-05 14:12 50.09276 14.27693 1212 ft 78 kts 307°
2026-05-05 14:12 50.09738 14.26749 1209 ft 141 kts 308°
2026-05-05 14:12 50.10429 14.25367 1421 ft 173 kts 308°
2026-05-05 14:12 50.11147 14.23712 1905 ft 195 kts 306°
2026-05-05 14:13 50.11942 14.21920 2556 ft 203 kts 313°
2026-05-05 14:13 50.12831 14.20172 3277 ft 211 kts 311°
2026-05-05 14:13 50.13789 14.18265 3524 ft 236 kts 310°
2026-05-05 14:13 50.14838 14.16151 3817 ft 257 kts 309°
2026-05-05 14:14 50.15955 14.13850 4390 ft 272 kts 309°
2026-05-05 14:14 50.17108 14.11453 5190 ft 276 kts 308°
2026-05-05 14:14 50.18022 14.08844 5706 ft 276 kts 284°
2026-05-05 14:14 50.18052 14.05848 5794 ft 284 kts 255°
2026-05-05 14:15 50.17123 14.03122 6470 ft 285 kts 228°
2026-05-05 14:15 50.15689 14.01147 7633 ft 275 kts 216°
2026-05-05 14:15 50.14154 13.99410 8814 ft 269 kts 210°
2026-05-05 14:15 50.12389 13.98465 9747 ft 273 kts 186°
2026-05-05 14:16 50.10459 13.98677 10343 ft 291 kts 166°
2026-05-05 14:16 50.08474 13.99870 10564 ft 320 kts 158°
2026-05-05 14:16 50.06362 14.01363 10787 ft 345 kts 156°
2026-05-05 14:16 50.04145 14.02971 11369 ft 357 kts 156°
2026-05-05 14:17 50.01876 14.04606 12186 ft 361 kts 157°
2026-05-05 14:17 49.99581 14.06239 13017 ft 365 kts 157°
2026-05-05 14:17 49.97249 14.07879 13863 ft 370 kts 157°
2026-05-05 14:17 49.94889 14.09526 14674 ft 373 kts 158°
2026-05-05 14:18 49.92511 14.11180 15491 ft 376 kts 158°
2026-05-05 14:18 49.90110 14.12845 16263 ft 381 kts 158°
2026-05-05 14:18 49.87678 14.14529 17044 ft 385 kts 157°
2026-05-05 14:18 49.85369 14.16717 17779 ft 395 kts 140°
2026-05-05 14:19 49.83567 14.19900 18457 ft 402 kts 130°
2026-05-05 14:19 49.81882 14.23385 19099 ft 407 kts 129°
2026-05-05 14:19 49.80198 14.26932 19734 ft 411 kts 129°
2026-05-05 14:19 49.78491 14.30512 20376 ft 414 kts 129°
2026-05-05 14:20 49.76761 14.34101 21013 ft 418 kts 129°
2026-05-05 14:20 49.75005 14.37707 21633 ft 421 kts 129°
2026-05-05 14:20 49.73231 14.41328 22261 ft 424 kts 129°
2026-05-05 14:20 49.71434 14.44984 22835 ft 428 kts 130°
2026-05-05 14:21 49.69621 14.48667 23403 ft 432 kts 130°
2026-05-05 14:21 49.67791 14.52378 23867 ft 436 kts 130°
2026-05-05 14:21 49.65967 14.56145 24314 ft 440 kts 127°
2026-05-05 14:21 49.64292 14.60081 24712 ft 446 kts 124°
2026-05-05 14:22 49.62662 14.64186 25166 ft 450 kts 123°
2026-05-05 14:22 49.61030 14.68334 25620 ft 453 kts 124°
2026-05-05 14:22 49.59370 14.72488 26055 ft 456 kts 124°
2026-05-05 14:22 49.57678 14.76647 26484 ft 459 kts 124°
2026-05-05 14:23 49.55963 14.80813 26889 ft 462 kts 125°
2026-05-05 14:23 49.54228 14.84932 27280 ft 464 kts 129°
2026-05-05 14:23 49.51993 14.88482 27627 ft 461 kts 147°
2026-05-05 14:23 49.49244 14.90990 28070 ft 459 kts 155°
2026-05-05 14:24 49.46392 14.93255 28431 ft 462 kts 155°
2026-05-05 14:24 49.43508 14.95503 28708 ft 467 kts 155°
2026-05-05 14:24 49.40592 14.97783 29006 ft 471 kts 155°
2026-05-05 14:24 49.37715 15.00057 29465 ft 471 kts 155°
2026-05-05 14:25 49.34809 15.02377 30033 ft 468 kts 155°
2026-05-05 14:25 49.31940 15.04681 30551 ft 465 kts 155°
2026-05-05 14:25 49.29081 15.06983 31023 ft 463 kts 155°
2026-05-05 14:25 49.26225 15.09281 31437 ft 463 kts 155°
2026-05-05 14:26 49.23372 15.11574 31853 ft 462 kts 155°
2026-05-05 14:26 49.20526 15.13858 32301 ft 460 kts 155°
2026-05-05 14:26 49.17691 15.16129 32746 ft 458 kts 155°
2026-05-05 14:26 49.14906 15.18356 33182 ft 457 kts 155°
2026-05-05 14:27 49.12086 15.20608 33542 ft 457 kts 155°
2026-05-05 14:27 49.09267 15.22855 33829 ft 458 kts 155°
2026-05-05 14:27 49.06444 15.25103 34144 ft 457 kts 155°
2026-05-05 14:27 49.03628 15.27343 34466 ft 456 kts 155°
2026-05-05 14:28 49.00816 15.29578 34764 ft 455 kts 155°
2026-05-05 14:28 48.98005 15.31809 35020 ft 456 kts 155°
2026-05-05 14:28 48.95192 15.34039 35296 ft 455 kts 155°
2026-05-05 14:28 48.92386 15.36260 35604 ft 454 kts 155°
2026-05-05 14:29 48.89544 15.38345 35907 ft 451 kts 161°
2026-05-05 14:29 48.86562 15.39764 36135 ft 447 kts 171°
2026-05-05 14:29 48.83559 15.40723 36363 ft 447 kts 171°
2026-05-05 14:29 48.80503 15.41644 36625 ft 447 kts 172°
2026-05-05 14:30 48.77450 15.42558 36892 ft 446 kts 172°
2026-05-05 14:30 48.74407 15.43483 37115 ft 446 kts 172°
2026-05-05 14:30 48.71360 15.44425 37303 ft 448 kts 171°
2026-05-05 14:30 48.68304 15.45381 37519 ft 448 kts 171°
2026-05-05 14:31 48.65255 15.46344 37784 ft 447 kts 171°
2026-05-05 14:31 48.62214 15.47307 38015 ft 447 kts 171°
2026-05-05 14:31 48.59168 15.48272 38224 ft 447 kts 171°
2026-05-05 14:31 48.56119 15.49237 38441 ft 447 kts 171°
2026-05-05 14:32 48.53117 15.50186 38611 ft 447 kts 171°
2026-05-05 14:32 48.50072 15.51145 38717 ft 449 kts 171°
2026-05-05 14:32 48.43921 15.53079 38716 ft 450 kts 171°
2026-05-05 14:33 48.37797 15.55002 38729 ft 447 kts 171°
2026-05-05 14:33 48.31757 15.56893 38732 ft 445 kts 171°
2026-05-05 14:34 48.25709 15.58781 38746 ft 443 kts 171°
2026-05-05 14:34 48.19663 15.60664 38735 ft 444 kts 171°
2026-05-05 14:35 48.13604 15.62548 38754 ft 445 kts 172°
2026-05-05 14:35 48.07521 15.64417 38763 ft 447 kts 174°
2026-05-05 14:36 48.01373 15.64532 38768 ft 441 kts 193°
2026-05-05 14:36 47.95403 15.62618 38779 ft 441 kts 195°
2026-05-05 14:37 47.89405 15.60567 38785 ft 442 kts 196°
2026-05-05 14:37 47.83391 15.58564 38792 ft 443 kts 195°
2026-05-05 14:38 47.77370 15.56603 38789 ft 442 kts 197°
2026-05-05 14:38 47.71367 15.54661 38811 ft 441 kts 194°
2026-05-05 14:39 47.65376 15.52726 38825 ft 440 kts 195°
2026-05-05 14:39 47.59430 15.50814 38842 ft 439 kts 196°
2026-05-05 14:40 47.53452 15.48895 38843 ft 439 kts 195°
2026-05-05 14:40 47.47476 15.46980 38846 ft 440 kts 195°
2026-05-05 14:41 47.41485 15.45063 38851 ft 440 kts 195°
2026-05-05 14:41 47.35491 15.43150 38849 ft 441 kts 195°
2026-05-05 14:42 47.29515 15.41249 38864 ft 442 kts 195°
2026-05-05 14:42 47.23502 15.39340 38861 ft 442 kts 195°
2026-05-05 14:43 47.17480 15.37433 38861 ft 442 kts 195°
2026-05-05 14:43 47.11450 15.35528 38860 ft 442 kts 195°
2026-05-05 14:44 47.05477 15.33645 38881 ft 441 kts 195°
2026-05-05 14:44 46.99470 15.31756 38885 ft 440 kts 195°
2026-05-05 14:45 46.93483 15.29880 38878 ft 439 kts 196°
2026-05-05 14:45 46.88509 15.28328 38874 ft 439 kts 195°
2026-05-05 14:46 46.81558 15.26148 38894 ft 439 kts 195°
2026-05-05 14:46 46.76545 15.24582 38881 ft 440 kts 195°
2026-05-05 14:47 46.70580 15.22725 38904 ft 441 kts 195°
2026-05-05 14:47 46.64610 15.20587 38910 ft 440 kts 203°
2026-05-05 14:48 46.59183 15.16573 38939 ft 438 kts 212°
2026-05-05 14:48 46.53902 15.12169 38945 ft 437 kts 212°
2026-05-05 14:49 46.48610 15.07792 38936 ft 437 kts 212°
2026-05-05 14:49 46.43352 15.03496 38946 ft 436 kts 212°
2026-05-05 14:50 46.38077 14.99216 38959 ft 433 kts 212°
2026-05-05 14:50 46.32813 14.94960 38956 ft 431 kts 213°
2026-05-05 14:51 46.27580 14.90737 38973 ft 429 kts 212°
2026-05-05 14:51 46.22377 14.86541 38994 ft 428 kts 212°
2026-05-05 14:52 46.17207 14.82385 39002 ft 427 kts 212°
2026-05-05 14:52 46.11988 14.78197 39007 ft 429 kts 212°
2026-05-05 14:53 46.06765 14.74015 39019 ft 432 kts 212°
2026-05-05 14:53 46.01481 14.69794 39011 ft 435 kts 212°
2026-05-05 14:54 45.96205 14.65589 39008 ft 435 kts 212°
2026-05-05 14:54 45.90903 14.61374 39007 ft 435 kts 212°
2026-05-05 14:55 45.85594 14.57162 39004 ft 436 kts 212°
2026-05-05 14:55 45.80294 14.52967 39012 ft 435 kts 212°
2026-05-05 14:56 45.74999 14.48783 39009 ft 435 kts 212°
2026-05-05 14:56 45.69703 14.44608 39013 ft 434 kts 212°
2026-05-05 14:57 45.64411 14.40446 39023 ft 433 kts 212°
2026-05-05 14:57 45.59169 14.36332 39028 ft 432 kts 212°
2026-05-05 14:58 45.53896 14.32202 39033 ft 432 kts 212°
2026-05-05 14:58 45.48630 14.28087 39041 ft 431 kts 212°
2026-05-05 14:59 45.43365 14.23982 39033 ft 431 kts 212°
2026-05-05 14:59 45.38098 14.19883 39041 ft 431 kts 212°
2026-05-05 15:00 45.33709 14.16473 39055 ft 432 kts 212°
2026-05-05 15:00 45.27562 14.11709 39026 ft 433 kts 212°
2026-05-05 15:01 45.22259 14.07610 39039 ft 434 kts 212°
2026-05-05 15:01 45.16953 14.03516 39042 ft 434 kts 212°
2026-05-05 15:02 45.11668 13.99448 39039 ft 435 kts 212°
2026-05-05 15:02 45.06340 13.95354 39036 ft 436 kts 211°
2026-05-05 15:03 45.01004 13.91264 39040 ft 436 kts 211°
2026-05-05 15:03 44.95664 13.87179 39019 ft 436 kts 211°
2026-05-05 15:04 44.90331 13.83108 39024 ft 434 kts 211°
2026-05-05 15:04 44.85035 13.79076 39021 ft 432 kts 211°
2026-05-05 15:05 44.77144 13.73081 39023 ft 429 kts 211°
2026-05-05 15:06 44.71887 13.69097 39020 ft 428 kts 211°
2026-05-05 15:06 44.66661 13.65145 39001 ft 425 kts 211°
2026-05-05 15:07 44.61463 13.61222 38994 ft 423 kts 211°
2026-05-05 15:07 44.56284 13.57321 38989 ft 422 kts 211°
2026-05-05 15:08 44.51116 13.53436 38992 ft 421 kts 211°
2026-05-05 15:08 44.45987 13.49587 38992 ft 420 kts 211°
2026-05-05 15:09 44.40828 13.45722 38984 ft 420 kts 212°
2026-05-05 15:09 44.35676 13.41813 38975 ft 421 kts 212°
2026-05-05 15:10 44.30521 13.37884 38981 ft 422 kts 212°
2026-05-05 15:10 44.25351 13.33956 38978 ft 424 kts 212°
2026-05-05 15:11 44.20187 13.30044 38957 ft 426 kts 212°
2026-05-05 15:11 44.14966 13.26099 38973 ft 427 kts 212°
2026-05-05 15:12 44.09737 13.22155 38970 ft 428 kts 212°
2026-05-05 15:12 44.04491 13.18208 38960 ft 429 kts 212°
2026-05-05 15:13 43.99245 13.14269 38961 ft 429 kts 212°
2026-05-05 15:13 43.94025 13.10356 38970 ft 428 kts 212°
2026-05-05 15:14 43.88782 13.06435 38956 ft 427 kts 212°
2026-05-05 15:14 43.83568 13.02544 38955 ft 425 kts 213°
2026-05-05 15:15 43.78368 12.98670 38951 ft 423 kts 213°
2026-05-05 15:15 43.73194 12.94822 38958 ft 422 kts 213°
2026-05-05 15:16 43.68026 12.90986 38954 ft 421 kts 213°
2026-05-05 15:16 43.62866 12.87164 38972 ft 421 kts 213°
2026-05-05 15:17 43.57731 12.83368 38980 ft 421 kts 213°
2026-05-05 15:17 43.52559 12.79551 38985 ft 421 kts 213°
2026-05-05 15:18 43.47413 12.75760 39001 ft 421 kts 213°
2026-05-05 15:18 43.42251 12.71959 39004 ft 420 kts 214°
2026-05-05 15:18 43.39732 12.69941 38742 ft 424 kts 216°
2026-05-05 15:19 43.37198 12.67809 38213 ft 420 kts 217°
2026-05-05 15:19 43.34712 12.65685 37466 ft 419 kts 217°
2026-05-05 15:19 43.32248 12.63576 36797 ft 416 kts 217°
2026-05-05 15:19 43.29821 12.61508 36144 ft 415 kts 217°
2026-05-05 15:20 43.27363 12.59422 35381 ft 415 kts 217°
2026-05-05 15:20 43.24899 12.57340 34604 ft 417 kts 218°
2026-05-05 15:20 43.22422 12.55253 33755 ft 418 kts 218°
2026-05-05 15:20 43.19937 12.53164 32820 ft 420 kts 217°
2026-05-05 15:21 43.17435 12.51065 31916 ft 421 kts 217°
2026-05-05 15:21 43.14923 12.48960 30967 ft 424 kts 216°
2026-05-05 15:21 43.12395 12.46844 29944 ft 427 kts 216°
2026-05-05 15:21 43.09850 12.44717 28748 ft 431 kts 216°
2026-05-05 15:22 43.07287 12.42578 27898 ft 427 kts 216°
2026-05-05 15:22 43.04787 12.40497 27082 ft 424 kts 215°
2026-05-05 15:22 43.02279 12.38409 26301 ft 419 kts 215°
2026-05-05 15:22 42.99801 12.36347 25539 ft 415 kts 215°
2026-05-05 15:23 42.97341 12.34300 24786 ft 412 kts 215°
2026-05-05 15:23 42.94888 12.32261 23979 ft 412 kts 214°
2026-05-05 15:23 42.92441 12.30227 23137 ft 410 kts 214°
2026-05-05 15:23 42.90008 12.28208 22295 ft 407 kts 214°
2026-05-05 15:24 42.87603 12.26213 21498 ft 403 kts 214°
2026-05-05 15:24 42.85222 12.24241 20718 ft 398 kts 214°
2026-05-05 15:24 42.82864 12.22290 19967 ft 394 kts 214°
2026-05-05 15:24 42.80562 12.20390 19751 ft 377 kts 214°
2026-05-05 15:25 42.78341 12.18620 19543 ft 363 kts 209°
2026-05-05 15:25 42.76052 12.17409 19392 ft 352 kts 200°
2026-05-05 15:25 42.73707 12.16660 19248 ft 342 kts 192°
2026-05-05 15:25 42.71366 12.16415 19111 ft 333 kts 183°
2026-05-05 15:26 42.69104 12.17034 18868 ft 335 kts 161°
2026-05-05 15:26 42.67046 12.18513 18548 ft 334 kts 154°
2026-05-05 15:26 42.65046 12.20133 18171 ft 335 kts 153°
2026-05-05 15:26 42.63054 12.21773 17769 ft 333 kts 153°
2026-05-05 15:27 42.61077 12.23389 17397 ft 330 kts 153°
2026-05-05 15:27 42.59104 12.24985 17034 ft 327 kts 153°
2026-05-05 15:27 42.57176 12.26532 16688 ft 325 kts 154°
2026-05-05 15:27 42.55232 12.28082 16341 ft 323 kts 154°
2026-05-05 15:28 42.53292 12.29626 15982 ft 321 kts 154°
2026-05-05 15:28 42.51368 12.31154 15641 ft 319 kts 154°
2026-05-05 15:28 42.49449 12.32675 15300 ft 318 kts 154°
2026-05-05 15:28 42.47543 12.34185 14950 ft 316 kts 154°
2026-05-05 15:29 42.45667 12.35676 14615 ft 315 kts 154°
2026-05-05 15:29 42.43779 12.37179 14297 ft 314 kts 154°
2026-05-05 15:29 42.41900 12.38674 13946 ft 313 kts 154°
2026-05-05 15:29 42.40028 12.40161 13580 ft 312 kts 154°
2026-05-05 15:30 42.38165 12.41641 13211 ft 308 kts 154°
2026-05-05 15:30 42.36325 12.43092 12865 ft 303 kts 156°
2026-05-05 15:30 42.34407 12.44153 12510 ft 292 kts 167°
2026-05-05 15:30 42.32498 12.44904 12179 ft 279 kts 168°
2026-05-05 15:31 42.30659 12.45620 11907 ft 272 kts 167°
2026-05-05 15:31 42.28863 12.46344 11634 ft 273 kts 167°
2026-05-05 15:31 42.27045 12.47095 11333 ft 273 kts 167°
2026-05-05 15:31 42.25217 12.47808 11035 ft 271 kts 174°
2026-05-05 15:32 42.23391 12.47624 10733 ft 260 kts 203°
2026-05-05 15:32 42.21904 12.46369 10464 ft 249 kts 226°
2026-05-05 15:32 42.20903 12.44511 10194 ft 244 kts 246°
2026-05-05 15:32 42.20325 12.42376 9930 ft 241 kts 252°
2026-05-05 15:33 42.19837 12.40226 9646 ft 238 kts 252°
2026-05-05 15:33 42.19522 12.38815 9466 ft 236 kts 253°
2026-05-05 15:33 42.19544 12.35939 9105 ft 236 kts 287°
2026-05-05 15:33 42.20406 12.34077 8985 ft 235 kts 310°
2026-05-05 15:34 42.21782 12.32823 8883 ft 246 kts 334°
2026-05-05 15:34 42.23430 12.32086 8807 ft 253 kts 338°
2026-05-05 15:34 42.24558 12.31620 8729 ft 257 kts 338°
2026-05-05 15:34 42.26273 12.30914 8610 ft 258 kts 339°
2026-05-05 15:35 42.27988 12.30210 8495 ft 257 kts 339°
2026-05-05 15:35 42.29697 12.29500 8387 ft 257 kts 338°
2026-05-05 15:35 42.31986 12.28539 8229 ft 257 kts 339°
2026-05-05 15:35 42.33116 12.28065 8159 ft 256 kts 338°
2026-05-05 15:36 42.34815 12.27350 8053 ft 255 kts 338°
2026-05-05 15:36 42.36507 12.26636 7952 ft 254 kts 337°
2026-05-05 15:36 42.38188 12.25925 7841 ft 251 kts 338°
2026-05-05 15:36 42.39826 12.25145 7731 ft 246 kts 324°
2026-05-05 15:37 42.41002 12.23602 7620 ft 232 kts 295°
2026-05-05 15:37 42.41458 12.21559 7522 ft 224 kts 270°
2026-05-05 15:37 42.41298 12.19493 7478 ft 221 kts 254°
2026-05-05 15:37 42.40847 12.17469 7391 ft 232 kts 251°
2026-05-05 15:38 42.40351 12.15395 7271 ft 233 kts 253°
2026-05-05 15:38 42.39871 12.13297 7175 ft 231 kts 244°
2026-05-05 15:38 42.38905 12.11625 7056 ft 224 kts 220°
2026-05-05 15:38 42.37552 12.10652 6961 ft 220 kts 199°
2026-05-05 15:39 42.36045 12.10427 6860 ft 220 kts 178°
2026-05-05 15:39 42.34547 12.10926 6793 ft 223 kts 167°
2026-05-05 15:39 42.33060 12.11559 6699 ft 225 kts 167°
2026-05-05 15:39 42.31576 12.12219 6582 ft 229 kts 165°
2026-05-05 15:40 42.30063 12.12869 6470 ft 229 kts 168°
2026-05-05 15:40 42.28531 12.13475 6360 ft 229 kts 167°
2026-05-05 15:40 42.27028 12.14116 6223 ft 224 kts 167°
2026-05-05 15:40 42.25562 12.14746 6128 ft 218 kts 167°
2026-05-05 15:41 42.24122 12.15360 6050 ft 216 kts 168°
2026-05-05 15:41 42.22676 12.15974 5881 ft 220 kts 167°
2026-05-05 15:41 42.21191 12.16603 5615 ft 224 kts 167°
2026-05-05 15:41 42.19726 12.17223 5366 ft 223 kts 167°
2026-05-05 15:42 42.18248 12.17848 5101 ft 223 kts 167°
2026-05-05 15:42 42.16763 12.18475 4823 ft 224 kts 167°
2026-05-05 15:42 42.15274 12.19043 4524 ft 220 kts 176°
2026-05-05 15:42 42.13778 12.18904 4251 ft 211 kts 193°
2026-05-05 15:43 42.12385 12.18489 3997 ft 204 kts 194°
2026-05-05 15:43 42.11006 12.18057 3755 ft 197 kts 194°
2026-05-05 15:43 42.09702 12.17654 3514 ft 191 kts 193°
2026-05-05 15:43 42.08438 12.17271 3310 ft 180 kts 193°
2026-05-05 15:44 42.07241 12.16913 3087 ft 172 kts 187°
2026-05-05 15:44 42.06106 12.17126 2996 ft 164 kts 165°
2026-05-05 15:44 42.05031 12.17577 2932 ft 161 kts 165°
2026-05-05 15:44 42.03975 12.18020 2882 ft 155 kts 165°
2026-05-05 15:45 42.02962 12.18449 2807 ft 150 kts 163°
2026-05-05 15:45 42.01962 12.18876 2749 ft 151 kts 164°
2026-05-05 15:45 42.00953 12.19297 2704 ft 153 kts 163°
2026-05-05 15:45 41.99924 12.19725 2617 ft 156 kts 164°
2026-05-05 15:46 41.98907 12.20148 2534 ft 149 kts 164°
2026-05-05 15:46 41.97937 12.20554 2509 ft 146 kts 164°
2026-05-05 15:46 41.96955 12.20956 2500 ft 145 kts 165°
2026-05-05 15:46 41.96018 12.21344 2380 ft 141 kts 165°
2026-05-05 15:47 41.95112 12.21723 2204 ft 132 kts 165°
2026-05-05 15:47 41.94278 12.22074 2064 ft 119 kts 165°
2026-05-05 15:47 41.93512 12.22395 1888 ft 115 kts 164°
2026-05-05 15:47 41.92739 12.22720 1731 ft 117 kts 164°
2026-05-05 15:48 41.91952 12.23050 1555 ft 119 kts 163°
2026-05-05 15:48 41.91159 12.23383 1396 ft 120 kts 163°
2026-05-05 15:48 41.90361 12.23719 1234 ft 120 kts 162°
2026-05-05 15:48 41.89570 12.24051 1077 ft 118 kts 161°
2026-05-05 15:49 41.88805 12.24354 1002 ft 113 kts 161°
2026-05-05 15:49 41.88026 12.24675 811 ft 121 kts 161°
2026-05-05 15:49 41.87223 12.25044 645 ft 127 kts 160°
2026-05-05 15:49 41.86367 12.25413 459 ft 130 kts 162°
2026-05-05 15:50 41.85490 12.25765 249 ft 133 kts 163°
2026-05-05 15:50 41.84613 12.26127 90 ft 132 kts 163°
2026-05-05 15:50 41.83771 12.26487 14 ft 115 kts 161°
2026-05-05 15:50 41.83123 12.26765 13 ft 80 kts 162°
2026-05-05 15:51 41.82713 12.26939 19 ft 44 kts 163°
2026-05-05 15:51 41.82536 12.27011 13 ft 9 kts 162°
2026-05-05 15:51 41.82441 12.27051 11 ft 23 kts 162°
2026-05-05 15:51 41.82288 12.27110 8 ft 23 kts 167°
2026-05-05 15:52 41.82134 12.27139 8 ft 22 kts 179°
2026-05-05 15:52 41.81985 12.27114 8 ft 21 kts 192°
2026-05-05 15:52 41.81842 12.27073 13 ft 21 kts 193°
2026-05-05 15:52 41.81702 12.27048 15 ft 20 kts 175°
2026-05-05 15:53 41.81569 12.27093 16 ft 19 kts 162°
2026-05-05 15:53 41.81442 12.27149 18 ft 19 kts 162°
2026-05-05 15:53 41.81318 12.27199 15 ft 18 kts 163°
2026-05-05 15:53 41.81199 12.27248 14 ft 18 kts 163°
2026-05-05 15:54 41.81084 12.27295 11 ft 17 kts 163°
2026-05-05 15:54 41.80975 12.27340 11 ft 16 kts 163°
2026-05-05 15:54 41.80865 12.27335 12 ft 16 kts 187°
2026-05-05 15:54 41.80759 12.27316 12 ft 15 kts 190°
2026-05-05 15:55 41.80669 12.27255 13 ft 14 kts 232°
2026-05-05 15:55 41.80630 12.27134 13 ft 14 kts 249°
2026-05-05 15:55 41.80599 12.27016 13 ft 13 kts 250°
2026-05-05 15:55 41.80568 12.26902 14 ft 13 kts 250°
2026-05-05 15:56 41.80538 12.26791 13 ft 12 kts 250°
2026-05-05 15:56 41.80508 12.26683 12 ft 12 kts 249°
2026-05-05 15:56 41.80478 12.26579 13 ft 12 kts 249°
2026-05-05 15:56 41.80450 12.26476 13 ft 12 kts 250°
2026-05-05 15:57 41.80422 12.26377 12 ft 11 kts 250°
2026-05-05 15:57 41.80396 12.26278 13 ft 12 kts 250°
2026-05-05 15:57 41.80363 12.26165 13 ft 15 kts 243°
2026-05-05 15:57 41.80278 12.26071 12 ft 16 kts 202°
2026-05-05 15:58 41.80177 12.26010 14 ft 16 kts 204°
2026-05-05 15:58 41.80080 12.25951 16 ft 15 kts 205°
2026-05-05 15:58 41.79987 12.25893 16 ft 14 kts 205°
2026-05-05 15:58 41.79898 12.25837 17 ft 14 kts 205°
2026-05-05 15:59 41.79818 12.25777 19 ft 10 kts 206°
2026-05-05 15:59 41.79795 12.25757 20 ft 2 kts 254°
2026-05-05 15:59 41.79801 12.25726 17 ft 5 kts 277°
2026-05-05 15:59 41.79810 12.25694 17 ft 3 kts 297°
2026-05-05 16:00 41.79811 12.25692 17 ft 0 kts 297°